This demonstration page uses our WeatherBlox Daily Observations layout. Learn more.

Left ArrowRight Arrow

41.86663, -103.66717

Hourly Observations for January 16, 2015

Temp ( °F °C ) Dew Point ( °F °C ) Humidity (%) Winds ( mph kmh ) Pressure ( in mb ) Visibility ( mi km ) Precip ( " mm )
12:53 am 00:53 Clear 23 -5 13 -10.6 65 65 WNW 6 9 30.15 1021 10 16 0.00 0.00
1:53 am 01:53 Clear 25 -3.9 14 -10 63 63 NW 6 9 30.12 1020 10 16 0.00 0.00
2:43 am 02:43 Clear 40 4.4 19 -7.2 43 43 W 23 37 30.09 1019 10 16 0.00 0.00
2:53 am 02:53 Clear 39 3.9 19 -7.2 45 45 W 18 30 30.07 1018 10 16 0.00 0.00
3:53 am 03:53 Clear 27 -2.8 16 -8.9 63 63 NNW 9 15 30.11 1020 10 16 0.00 0.00
4:53 am 04:53 Clear 24 -4.4 15 -9.4 68 68 NW 7 11 30.11 1020 10 16 0.00 0.00
5:53 am 05:53 Clear 27 -2.8 15 -9.4 61 61 WNW 7 11 30.09 1019 10 16 0.00 0.00
6:53 am 06:53 Clear 25 -3.9 16 -8.9 69 69 NW 5 7 30.09 1019 10 16 0.00 0.00
7:53 am 07:53 Sunny 27 -2.8 17 -8.3 66 66 NE 5 7 30.09 1019 10 16 0.00 0.00
8:53 am 08:53 Mostly Sunny 38 3.3 22 -5.6 52 52 WNW 10 17 30.06 1018 10 16 0.00 0.00
9:53 am 09:53 Mostly Cloudy 44 6.7 23 -5 43 43 W 8 13 30.04 1017 10 16 0.00 0.00
10:53 am 10:53 Mostly Sunny 48 8.9 20 -6.7 33 33 WSW 16 26 30.01 1016 10 16 0.00 0.00
11:53 am 11:53 Sunny 48 8.9 20 -6.7 33 33 WSW 20 31 29.92 1013 10 16 0.00 0.00
12:53 pm 12:53 Sunny 48 8.9 23 -5 37 37 W 10 17 29.88 1012 10 16 0.00 0.00
1:53 pm 13:53 Sunny 49 9.4 23 -5 36 36 WNW 12 19 29.84 1011 10 16 0.00 0.00
2:53 pm 14:53 Sunny 46 7.8 25 -3.9 44 44 W 17 28 29.80 1009 10 16 0.00 0.00
3:53 pm 15:53 Sunny 47 8.3 24 -4.4 41 41 W 13 20 29.83 1010 10 16 0.00 0.00
4:53 pm 16:53 Mostly Clear 49 9.4 22 -5.6 35 35 W 22 35 29.83 1010 10 16 0.00 0.00
5:53 pm 17:53 Mostly Cloudy 45 7.2 25 -3.9 46 46 W 18 30 29.86 1011 10 16 0.00 0.00
6:53 pm 18:53 Clear 47 8.3 25 -3.9 42 42 WSW 36 57 29.83 1010 10 16 0.00 0.00
7:53 pm 19:53 Clear 45 7.2 26 -3.3 48 48 W 28 44 29.83 1010 10 16 0.00 0.00
8:53 pm 20:53 Clear 42 5.6 28 -2.2 58 58 W 16 26 29.83 1010 10 16 0.00 0.00
9:53 pm 21:53 Clear 42 5.6 28 -2.2 58 58 W 21 33 29.81 1010 10 16 0.00 0.00
10:53 pm 22:53 Clear 42 5.6 29 -1.7 60 60 W 29 46 29.82 1010 10 16 0.00 0.00
11:53 pm 23:53 Clear 40 4.4 30 -1.1 68 68 WNW 17 28 29.86 1011 10 16 0.00 0.00

Powered by AerisWeather